Location: Ca�n Batista
(41.4099°N, 1.7752°E)
Time: 15:01:38
(UTC+00:00)

Cosmos 2333 Rocket - Pass Details

Date: 03 March 2021
Orbit: 837 x 864 km, 70.8° (Epoch: 22 April)

Event Time Altitude Azimuth Distance (km) Brightness Sun altitude
Rises 20:29:00 0° 224° (SW) 3,387 5.6 -30.9°
Reaches altitude 10° 20:31:34 10° 232° (SW) 2,460 4.9 -31.3°
Maximum altitude 20:36:51 40° 301° (WNW) 1,231 3.4 -32.3°
Drops below altitude 10° 20:42:13 10° 11° (N) 2,490 4.7 -33.2°
Sets 20:44:52 0° 19° (NNE) 3,434 5.4 -33.6°
